Location: El Gallo
(32.4380°N, 116.9347°W)
Time: 19:20:36
(UTC+00:00)

Cosmos 2173 Rocket - Pass Details

Date: 01 October 2022
Orbit: 945 x 999 km, 83.0° (Epoch: 01 December)

Event Time Altitude Azimuth Distance (km) Brightness Sun altitude
Exits shadow 12:16:59 - 203° (SSW) 3,079 6.3 -18.7°
Reaches altitude 10° 12:18:05 10° 206° (SSW) 2,682 6.0 -18.5°
Maximum altitude 12:23:58 47° 279° (W) 1,233 4.1 -17.2°
Drops below altitude 10° 12:29:49 10° 353° (N) 2,672 6.3 -16.0°
Sets 12:32:25 0° 359° (N) 3,618 7.1 -15.5°
